{"data":{"norad_id":64612,"intl_designator":"2025-137U","name":"STARLINK-34521","alt_names":[],"object_type":"PAYLOAD","status":"ACTIVE","operator":null,"country":"US","launch_date":"2025-06-25","launch_site_code":"AFETR","launch_vehicle":null,"mission":null,"orbit_class":"UNKNOWN","rcs_meters":null,"size_class":null,"mass_kg":null,"dimensions":null,"purposes":["comms"],"wikipedia_slug":null,"has_3d_model":false,"image_url":null,"decayed_at":null,"tle_current":{"epoch":"2026-05-24T23:03:26.836128Z","epoch_age_seconds":88916,"freshness":"FRESH","line1":"1 64612U 25137U   26144.96072727  .00025916  00000+0  88374-3 0  9999","line2":"2 64612  53.1596 340.8684 0001002  67.5927 292.5180 15.30212831 52417","mean_motion":15.30212831,"eccentricity":0.0001002,"inclination_deg":53.1596,"raan_deg":340.8684,"arg_perigee_deg":67.5927,"mean_anomaly_deg":292.518,"bstar":0.00088374,"rev_number":5241,"period_min":94.104556622947,"perigee_km":474.49005659521,"apogee_km":475.86346067245,"semimajor_km":6853.3137586338,"source":"CELESTRAK","updated_at":"2026-05-25T13:38:20.497199Z"}}}